Time,TemperatureF,DewpointF,PressureIn,WindDirection,WindDirectionDegrees,WindSpeedMPH,WindSpeedGustMPH,Humidity,HourlyPrecipIn,Conditions,Clouds,dailyrainin,SoftwareType,DateUTC
2013-04-04 00:00:00,27.2,17.7,30.33,WNW,290,0.0,0.0,67,0.00,,FEW250,0.00,VWS V14.01,2013-04-04 04:00:00,
2013-04-04 00:01:00,27.2,17.7,30.33,WNW,290,0.0,0.0,67,0.00,,FEW250,0.00,VWS V14.01,2013-04-04 04:01:00,
2013-04-04 00:05:00,27.1,17.6,30.33,WNW,289,0.0,0.0,67,0.00,,FEW250,0.00,VWS V14.01,2013-04-04 04:05:00,
2013-04-04 00:11:00,27.0,17.9,30.33,WNW,289,0.0,0.0,68,0.00,,FEW250,0.00,VWS V14.01,2013-04-04 04:11:00,
2013-04-04 00:16:00,26.9,17.8,30.33,WNW,289,0.0,0.0,68,0.00,,FEW250,0.00,VWS V14.01,2013-04-04 04:16:00,
2013-04-04 00:22:00,26.8,17.7,30.33,WNW,289,0.0,0.0,68,0.00,,FEW250,0.00,VWS V14.01,2013-04-04 04:22:00,
2013-04-04 00:27:00,26.7,17.6,30.32,WNW,289,0.0,0.0,68,0.00,,FEW250,0.00,VWS V14.01,2013-04-04 04:27:00,
2013-04-04 00:32:00,26.6,17.5,30.32,WNW,289,0.0,0.0,68,0.00,,FEW250,0.00,VWS V14.01,2013-04-04 04:32:00,
2013-04-04 00:37:00,26.4,17.6,30.32,WNW,289,0.0,0.0,69,0.00,,FEW250,0.00,VWS V14.01,2013-04-04 04:37:00,
2013-04-04 00:43:00,26.3,17.5,30.32,WNW,289,0.0,0.0,69,0.00,,FEW250,0.00,VWS V14.01,2013-04-04 04:43:00,
2013-04-04 00:48:00,26.1,17.7,30.32,WNW,289,0.0,0.0,70,0.00,,FEW250,0.00,VWS V14.01,2013-04-04 04:48:00,
2013-04-04 00:53:00,26.0,17.9,30.32,WNW,289,0.0,0.0,71,0.00,,FEW250,0.00,VWS V14.01,2013-04-04 04:53:00,
2013-04-04 00:59:00,25.9,17.8,30.32,WNW,289,0.0,0.0,71,0.00,,FEW250,0.00,VWS V14.01,2013-04-04 04:59:00,
2013-04-04 01:04:00,25.8,18.0,30.32,WNW,289,0.0,0.0,72,0.00,,FEW250,0.00,VWS V14.01,2013-04-04 05:04:00,
2013-04-04 01:10:00,25.8,18.4,30.31,WNW,289,0.0,0.0,73,0.00,,FEW250,0.00,VWS V14.01,2013-04-04 05:10:00,
2013-04-04 01:15:00,25.8,18.7,30.31,WNW,289,0.0,0.0,74,0.00,,FEW250,0.00,VWS V14.01,2013-04-04 05:15:00,
2013-04-04 01:20:00,25.8,18.7,30.31,WNW,289,0.0,0.0,74,0.00,,FEW250,0.00,VWS V14.01,2013-04-04 05:20:00,
2013-04-04 01:25:00,25.8,18.7,30.31,WNW,289,0.0,0.0,74,0.00,,FEW250,0.00,VWS V14.01,2013-04-04 05:25:00,
2013-04-04 01:31:00,25.7,18.6,30.31,WNW,289,0.0,0.0,74,0.00,,FEW250,0.00,VWS V14.01,2013-04-04 05:31:00,
2013-04-04 01:36:00,25.6,18.5,30.31,WNW,289,0.0,0.0,74,0.00,,FEW250,0.00,VWS V14.01,2013-04-04 05:36:00,
2013-04-04 01:42:00,25.5,18.4,30.30,WNW,289,0.0,0.0,74,0.00,,FEW250,0.00,VWS V14.01,2013-04-04 05:42:00,
2013-04-04 01:47:00,25.4,18.3,30.30,WNW,289,0.0,0.0,74,0.00,,FEW250,0.00,VWS V14.01,2013-04-04 05:47:00,
2013-04-04 01:52:00,25.3,18.2,30.30,WNW,289,0.0,0.0,74,0.00,,FEW250,0.00,VWS V14.01,2013-04-04 05:52:00,
2013-04-04 01:58:00,25.2,18.1,30.30,WNW,289,0.0,0.0,74,0.00,,FEW250,0.00,VWS V14.01,2013-04-04 05:58:00,
2013-04-04 02:03:00,25.1,18.0,30.30,WNW,289,0.0,0.0,74,0.00,,FEW250,0.00,VWS V14.01,2013-04-04 06:03:00,
2013-04-04 02:08:00,25.0,17.9,30.30,WNW,289,0.0,0.0,74,0.00,,FEW250,0.00,VWS V14.01,2013-04-04 06:08:00,
2013-04-04 02:14:00,24.9,18.1,30.29,WNW,289,0.0,0.0,75,0.00,,CLR,0.00,VWS V14.01,2013-04-04 06:14:00,
2013-04-04 02:19:00,24.8,18.0,30.29,WNW,289,0.0,0.0,75,0.00,,CLR,0.00,VWS V14.01,2013-04-04 06:19:00,
2013-04-04 02:25:00,24.9,18.4,30.29,WNW,289,0.0,0.0,76,0.00,,CLR,0.00,VWS V14.01,2013-04-04 06:25:00,
2013-04-04 02:30:00,25.0,18.5,30.28,WNW,289,0.0,0.0,76,0.00,,CLR,0.00,VWS V14.01,2013-04-04 06:30:00,
2013-04-04 02:35:00,25.0,18.8,30.28,WNW,289,0.0,0.0,77,0.00,,CLR,0.00,VWS V14.01,2013-04-04 06:35:00,
2013-04-04 02:40:00,25.1,18.9,30.28,WNW,289,0.0,0.0,77,0.00,,CLR,0.00,VWS V14.01,2013-04-04 06:40:00,
2013-04-04 02:46:00,25.2,19.0,30.28,WNW,289,0.0,0.0,77,0.00,,CLR,0.00,VWS V14.01,2013-04-04 06:46:00,
2013-04-04 02:51:00,25.3,19.1,30.28,WNW,289,0.0,0.0,77,0.00,,CLR,0.00,VWS V14.01,2013-04-04 06:51:00,
2013-04-04 02:56:00,25.3,19.1,30.28,WNW,289,0.0,0.0,77,0.00,,CLR,0.00,VWS V14.01,2013-04-04 06:56:00,
2013-04-04 03:01:00,25.4,19.5,30.27,WNW,289,0.0,0.0,78,0.00,,CLR,0.00,VWS V14.01,2013-04-04 07:01:00,
2013-04-04 03:06:00,25.4,19.5,30.27,WNW,289,0.0,0.0,78,0.00,,CLR,0.00,VWS V14.01,2013-04-04 07:06:00,
2013-04-04 03:11:00,25.4,19.5,30.27,WNW,289,0.0,0.0,78,0.00,,CLR,0.00,VWS V14.01,2013-04-04 07:11:00,
2013-04-04 03:17:00,25.5,19.6,30.27,WNW,289,0.0,0.0,78,0.00,,CLR,0.00,VWS V14.01,2013-04-04 07:17:00,
2013-04-04 03:22:00,25.5,19.6,30.26,WNW,289,0.0,0.0,78,0.00,,CLR,0.00,VWS V14.01,2013-04-04 07:22:00,
2013-04-04 03:28:00,25.6,19.7,30.26,WNW,289,0.0,0.0,78,0.00,,CLR,0.00,VWS V14.01,2013-04-04 07:28:00,
2013-04-04 03:33:00,25.7,19.8,30.26,WNW,289,0.0,0.0,78,0.00,,CLR,0.00,VWS V14.01,2013-04-04 07:33:00,
2013-04-04 03:38:00,25.8,19.9,30.26,WNW,289,0.0,0.0,78,0.00,,CLR,0.00,VWS V14.01,2013-04-04 07:38:00,
2013-04-04 03:43:00,25.8,19.9,30.25,WNW,289,0.0,0.0,78,0.00,,CLR,0.00,VWS V14.01,2013-04-04 07:43:00,
2013-04-04 03:49:00,25.9,20.0,30.25,WNW,289,0.0,0.0,78,0.00,,CLR,0.00,VWS V14.01,2013-04-04 07:49:00,
2013-04-04 03:54:00,26.0,20.1,30.25,WNW,286,0.0,0.0,78,0.00,,CLR,0.00,VWS V14.01,2013-04-04 07:54:00,
2013-04-04 03:59:00,26.1,20.2,30.25,WNW,284,1.0,3.0,78,0.00,,CLR,0.00,VWS V14.01,2013-04-04 07:59:00,
2013-04-04 04:04:00,26.2,20.3,30.25,WSW,253,1.0,3.0,78,0.00,,CLR,0.00,VWS V14.01,2013-04-04 08:04:00,
2013-04-04 04:10:00,26.3,20.1,30.25,WSW,252,0.0,1.0,77,0.00,,CLR,0.00,VWS V14.01,2013-04-04 08:10:00,
2013-04-04 04:15:00,26.4,20.2,30.25,WSW,252,0.0,0.0,77,0.00,,CLR,0.00,VWS V14.01,2013-04-04 08:15:00,
2013-04-04 04:21:00,26.5,20.3,30.25,WSW,252,0.0,0.0,77,0.00,,CLR,0.00,VWS V14.01,2013-04-04 08:21:00,
2013-04-04 04:26:00,26.6,20.4,30.24,WSW,252,0.0,0.0,77,0.00,,CLR,0.00,VWS V14.01,2013-04-04 08:26:00,
2013-04-04 04:31:00,26.7,20.5,30.24,WSW,252,0.0,0.0,77,0.00,,CLR,0.00,VWS V14.01,2013-04-04 08:31:00,
2013-04-04 04:37:00,26.8,20.3,30.24,WSW,252,0.0,0.0,76,0.00,,CLR,0.00,VWS V14.01,2013-04-04 08:37:00,
2013-04-04 04:42:00,26.8,20.3,30.24,WSW,252,0.0,0.0,76,0.00,,CLR,0.00,VWS V14.01,2013-04-04 08:42:00,
2013-04-04 04:48:00,26.9,20.4,30.24,WSW,252,0.0,0.0,76,0.00,,CLR,0.00,VWS V14.01,2013-04-04 08:48:00,
2013-04-04 04:53:00,27.0,20.1,30.24,WSW,252,0.0,2.0,75,0.00,,CLR,0.00,VWS V14.01,2013-04-04 08:53:00,
2013-04-04 04:58:00,27.0,20.1,30.24,WSW,252,2.0,2.0,75,0.00,,CLR,0.00,VWS V14.01,2013-04-04 08:58:00,
2013-04-04 05:03:00,27.0,20.1,30.24,WSW,252,0.0,0.0,75,0.00,,CLR,0.00,VWS V14.01,2013-04-04 09:03:00,
2013-04-04 05:08:00,27.1,20.2,30.24,WSW,252,0.0,0.0,75,0.00,,CLR,0.00,VWS V14.01,2013-04-04 09:08:00,
2013-04-04 05:14:00,27.1,20.2,30.24,WSW,252,2.0,4.0,75,0.00,,CLR,0.00,VWS V14.01,2013-04-04 09:14:00,
2013-04-04 05:19:00,27.1,19.9,30.23,WSW,252,0.0,0.0,74,0.00,,CLR,0.00,VWS V14.01,2013-04-04 09:19:00,
2013-04-04 05:24:00,27.1,19.9,30.23,WSW,252,0.0,0.0,74,0.00,,CLR,0.00,VWS V14.01,2013-04-04 09:24:00,
2013-04-04 05:29:00,27.1,19.9,30.23,WSW,252,0.0,0.0,74,0.00,,CLR,0.00,VWS V14.01,2013-04-04 09:29:00,
2013-04-04 05:35:00,27.1,19.9,30.23,WSW,250,0.0,0.0,74,0.00,,CLR,0.00,VWS V14.01,2013-04-04 09:35:00,
2013-04-04 05:40:00,27.2,20.0,30.23,WSW,250,0.0,0.0,74,0.00,,CLR,0.00,VWS V14.01,2013-04-04 09:40:00,
2013-04-04 05:45:00,27.2,20.0,30.23,WSW,250,0.0,0.0,74,0.00,,CLR,0.00,VWS V14.01,2013-04-04 09:45:00,
2013-04-04 05:50:00,27.3,20.1,30.22,WSW,250,0.0,0.0,74,0.00,,CLR,0.00,VWS V14.01,2013-04-04 09:50:00,
2013-04-04 05:55:00,27.3,19.8,30.22,WSW,250,0.0,0.0,73,0.00,,CLR,0.00,VWS V14.01,2013-04-04 09:55:00,
2013-04-04 06:01:00,27.4,19.9,30.22,WSW,248,0.0,2.0,73,0.00,,CLR,0.00,VWS V14.01,2013-04-04 10:01:00,
2013-04-04 06:06:00,27.5,20.0,30.22,WSW,248,3.0,4.0,73,0.00,,CLR,0.00,VWS V14.01,2013-04-04 10:06:00,
2013-04-04 06:11:00,27.5,20.0,30.22,WSW,248,0.0,0.0,73,0.00,,CLR,0.00,VWS V14.01,2013-04-04 10:11:00,
2013-04-04 06:17:00,27.6,20.1,30.22,WSW,247,0.0,0.0,73,0.00,,CLR,0.00,VWS V14.01,2013-04-04 10:17:00,
2013-04-04 06:22:00,27.6,19.8,30.21,WSW,247,0.0,0.0,72,0.00,,CLR,0.00,VWS V14.01,2013-04-04 10:22:00,
2013-04-04 06:28:00,27.6,19.8,30.21,WSW,247,0.0,0.0,72,0.00,,CLR,0.00,VWS V14.01,2013-04-04 10:28:00,
2013-04-04 06:33:00,27.6,19.8,30.21,WSW,247,0.0,0.0,72,0.00,,CLR,0.00,VWS V14.01,2013-04-04 10:33:00,
2013-04-04 06:38:00,27.6,19.4,30.21,WSW,245,0.0,1.0,71,0.00,,CLR,0.00,VWS V14.01,2013-04-04 10:38:00,
2013-04-04 06:43:00,27.6,19.4,30.21,WSW,245,0.0,0.0,71,0.00,,CLR,0.00,VWS V14.01,2013-04-04 10:43:00,
2013-04-04 06:49:00,27.6,19.4,30.21,WSW,245,0.0,0.0,71,0.00,,CLR,0.00,VWS V14.01,2013-04-04 10:49:00,
2013-04-04 06:54:00,27.6,19.4,30.21,WSW,245,0.0,0.0,71,0.00,,CLR,0.00,VWS V14.01,2013-04-04 10:54:00,
2013-04-04 06:59:00,27.6,19.1,30.21,WSW,245,0.0,0.0,70,0.00,,CLR,0.00,VWS V14.01,2013-04-04 10:59:00,
2013-04-04 07:05:00,27.6,19.1,30.21,WSW,245,0.0,0.0,70,0.00,,CLR,0.00,VWS V14.01,2013-04-04 11:05:00,
2013-04-04 07:10:00,27.7,19.2,30.21,WSW,244,0.0,0.0,70,0.00,,CLR,0.00,VWS V14.01,2013-04-04 11:10:00,
2013-04-04 07:16:00,27.8,19.3,30.21,WSW,244,0.0,3.0,70,0.00,,CLR,0.00,VWS V14.01,2013-04-04 11:16:00,
2013-04-04 07:21:00,27.9,19.1,30.21,WSW,244,0.0,0.0,69,0.00,,CLR,0.00,VWS V14.01,2013-04-04 11:21:00,
2013-04-04 07:26:00,28.0,19.2,30.21,WSW,244,0.0,0.0,69,0.00,,CLR,0.00,VWS V14.01,2013-04-04 11:26:00,
2013-04-04 07:32:00,28.1,19.3,30.21,WSW,244,0.0,0.0,69,0.00,,CLR,0.00,VWS V14.01,2013-04-04 11:32:00,
2013-04-04 07:37:00,28.2,19.0,30.21,WSW,244,0.0,0.0,68,0.00,,CLR,0.00,VWS V14.01,2013-04-04 11:37:00,
2013-04-04 07:42:00,28.3,19.1,30.21,WSW,243,2.0,4.0,68,0.00,,CLR,0.00,VWS V14.01,2013-04-04 11:42:00,
2013-04-04 07:48:00,28.5,19.3,30.21,WSW,243,2.0,3.0,68,0.00,,CLR,0.00,VWS V14.01,2013-04-04 11:48:00,
2013-04-04 07:53:00,28.6,19.0,30.21,WSW,243,0.0,0.0,67,0.00,,CLR,0.00,VWS V14.01,2013-04-04 11:53:00,
2013-04-04 07:59:00,28.8,19.2,30.21,WSW,243,0.0,0.0,67,0.00,,CLR,0.00,VWS V14.01,2013-04-04 11:59:00,
2013-04-04 08:04:00,29.1,19.2,30.20,WSW,243,0.0,0.0,66,0.00,,FEW220,0.00,VWS V14.01,2013-04-04 12:04:00,
2013-04-04 08:09:00,29.4,19.5,30.20,WSW,243,0.0,0.0,66,0.00,,FEW220,0.00,VWS V14.01,2013-04-04 12:09:00,
2013-04-04 08:15:00,29.7,19.8,30.20,WSW,243,0.0,0.0,66,0.00,,FEW220,0.00,VWS V14.01,2013-04-04 12:15:00,
2013-04-04 08:20:00,30.2,19.9,30.20,WSW,243,0.0,3.0,65,0.00,,FEW220,0.00,VWS V14.01,2013-04-04 12:20:00,
2013-04-04 08:25:00,30.7,20.0,30.20,WSW,240,0.0,6.0,64,0.00,,FEW220,0.00,VWS V14.01,2013-04-04 12:25:00,
2013-04-04 08:30:00,31.2,20.1,30.20,WSW,240,4.0,5.0,63,0.00,,FEW220,0.00,VWS V14.01,2013-04-04 12:30:00,
2013-04-04 08:36:00,31.8,20.3,30.20,SW,236,0.0,4.0,62,0.00,,FEW220,0.00,VWS V14.01,2013-04-04 12:36:00,
2013-04-04 08:42:00,32.5,20.2,30.20,SSW,210,6.0,6.0,60,0.00,,FEW220,0.00,VWS V14.01,2013-04-04 12:42:00,
2013-04-04 08:48:00,33.2,20.4,30.20,SSW,207,4.0,7.0,59,0.00,,FEW220,0.00,VWS V14.01,2013-04-04 12:48:00,
2013-04-04 08:53:00,33.8,20.6,30.20,SSW,207,5.0,5.0,58,0.00,,FEW220,0.00,VWS V14.01,2013-04-04 12:53:00,
2013-04-04 08:59:00,34.3,20.7,30.20,SSW,200,3.0,7.0,57,0.00,,FEW220,0.00,VWS V14.01,2013-04-04 12:59:00,
2013-04-04 09:04:00,34.9,20.8,30.19,SSW,200,2.0,6.0,56,0.00,,FEW220,0.00,VWS V14.01,2013-04-04 13:04:00,
2013-04-04 09:10:00,35.6,21.0,30.19,SSW,200,5.0,6.0,55,0.00,,FEW220,0.00,VWS V14.01,2013-04-04 13:10:00,
2013-04-04 09:15:00,36.1,21.1,30.19,SSW,200,0.0,0.0,54,0.00,,FEW220,0.00,VWS V14.01,2013-04-04 13:15:00,
2013-04-04 09:20:00,36.9,21.4,30.19,SSW,200,2.0,4.0,53,0.00,,FEW220,0.00,VWS V14.01,2013-04-04 13:20:00,
2013-04-04 09:25:00,37.6,21.1,30.19,SSW,200,4.0,6.0,51,0.00,,FEW220,0.00,VWS V14.01,2013-04-04 13:25:00,
2013-04-04 09:31:00,38.4,21.9,30.18,SSW,199,5.0,10.0,51,0.00,,FEW220,0.00,VWS V14.01,2013-04-04 13:31:00,
2013-04-04 09:36:00,39.1,21.1,30.18,SW,218,5.0,7.0,48,0.00,,FEW220,0.00,VWS V14.01,2013-04-04 13:36:00,
2013-04-04 09:41:00,39.7,21.1,30.18,SW,218,6.0,6.0,47,0.00,,FEW220,0.00,VWS V14.01,2013-04-04 13:41:00,
2013-04-04 09:47:00,40.2,21.1,30.17,SW,215,6.0,11.0,46,0.00,,FEW220,0.00,VWS V14.01,2013-04-04 13:47:00,
2013-04-04 09:52:00,40.6,20.9,30.17,SSW,207,4.0,7.0,45,0.00,,FEW220,0.00,VWS V14.01,2013-04-04 13:52:00,
2013-04-04 09:57:00,41.0,21.3,30.17,SSW,209,4.0,6.0,45,0.00,,FEW220,0.00,VWS V14.01,2013-04-04 13:57:00,
2013-04-04 10:02:00,41.5,21.2,30.17,SW,215,5.0,10.0,44,0.00,,FEW220,0.00,VWS V14.01,2013-04-04 14:02:00,
2013-04-04 10:07:00,42.0,22.2,30.17,SSW,209,5.0,6.0,45,0.00,,FEW220,0.00,VWS V14.01,2013-04-04 14:07:00,
2013-04-04 10:13:00,42.7,22.9,30.16,SSW,203,6.0,8.0,45,0.00,,FEW220,0.00,VWS V14.01,2013-04-04 14:13:00,
2013-04-04 10:18:00,43.1,21.6,30.16,SSW,209,10.0,20.0,42,0.00,,FEW220,0.00,VWS V14.01,2013-04-04 14:18:00,
2013-04-04 10:24:00,43.3,21.8,30.16,SSW,193,5.0,13.0,42,0.00,,FEW220,0.00,VWS V14.01,2013-04-04 14:24:00,
2013-04-04 10:29:00,43.4,21.9,30.16,SW,236,10.0,11.0,42,0.00,,FEW220,0.00,VWS V14.01,2013-04-04 14:29:00,
2013-04-04 10:34:00,43.8,22.8,30.16,SSW,209,5.0,11.0,43,0.00,,FEW220,0.00,VWS V14.01,2013-04-04 14:34:00,
2013-04-04 10:40:00,44.6,24.0,30.16,SW,229,12.0,12.0,44,0.00,,FEW220,0.00,VWS V14.01,2013-04-04 14:40:00,
2013-04-04 10:45:00,44.8,23.7,30.15,SSW,203,9.0,9.0,43,0.00,,FEW220,0.00,VWS V14.01,2013-04-04 14:45:00,
2013-04-04 10:50:00,45.1,22.8,30.15,South,182,6.0,11.0,41,0.00,,FEW220,0.00,VWS V14.01,2013-04-04 14:50:00,
2013-04-04 10:55:00,45.2,22.9,30.15,SW,228,5.0,12.0,41,0.00,,FEW220,0.00,VWS V14.01,2013-04-04 14:55:00,
2013-04-04 11:01:00,45.4,23.1,30.15,SW,216,7.0,14.0,41,0.00,,FEW220,0.00,VWS V14.01,2013-04-04 15:01:00,
2013-04-04 11:06:00,45.4,23.1,30.14,WSW,238,11.0,15.0,41,0.00,,FEW220,0.00,VWS V14.01,2013-04-04 15:06:00,
2013-04-04 11:12:00,45.7,23.4,30.14,SW,214,14.0,18.0,41,0.00,,FEW220,0.00,VWS V14.01,2013-04-04 15:12:00,
2013-04-04 11:17:00,45.9,23.0,30.14,SW,229,10.0,15.0,40,0.00,,FEW220,0.00,VWS V14.01,2013-04-04 15:17:00,
2013-04-04 11:22:00,46.2,23.8,30.13,WSW,244,15.0,15.0,41,0.00,,FEW220,0.00,VWS V14.01,2013-04-04 15:22:00,
2013-04-04 11:28:00,46.7,23.7,30.13,SSW,212,11.0,17.0,40,0.00,,FEW220,0.00,VWS V14.01,2013-04-04 15:28:00,
2013-04-04 11:33:00,47.2,23.5,30.13,WSW,248,11.0,11.0,39,0.00,,FEW220,0.00,VWS V14.01,2013-04-04 15:33:00,
2013-04-04 11:38:00,47.5,25.0,30.13,WSW,238,7.0,7.0,41,0.00,,FEW220,0.00,VWS V14.01,2013-04-04 15:38:00,
2013-04-04 11:44:00,48.1,23.7,30.13,WSW,238,6.0,9.0,38,0.00,,FEW220,0.00,VWS V14.01,2013-04-04 15:44:00,
2013-04-04 11:49:00,48.2,25.0,30.13,SW,227,13.0,15.0,40,0.00,,FEW220,0.00,VWS V14.01,2013-04-04 15:49:00,
2013-04-04 11:54:00,48.2,23.2,30.12,SW,224,9.0,14.0,37,0.00,,FEW220,0.00,VWS V14.01,2013-04-04 15:54:00,
2013-04-04 12:00:00,48.3,24.5,30.12,South,191,8.0,16.0,39,0.00,,FEW220,0.00,VWS V14.01,2013-04-04 16:00:00,
2013-04-04 12:05:00,48.5,24.1,30.12,SW,233,17.0,18.0,38,0.00,,FEW220,0.00,VWS V14.01,2013-04-04 16:05:00,
2013-04-04 12:10:00,48.6,23.5,30.12,SW,215,13.0,15.0,37,0.00,,FEW220,0.00,VWS V14.01,2013-04-04 16:10:00,
2013-04-04 12:15:00,48.9,25.0,30.11,WSW,237,10.0,18.0,39,0.00,,FEW220,0.00,VWS V14.01,2013-04-04 16:15:00,
2013-04-04 12:21:00,49.4,24.2,30.11,SW,233,6.0,12.0,37,0.00,,FEW220,0.00,VWS V14.01,2013-04-04 16:21:00,
2013-04-04 12:26:00,49.5,24.3,30.11,WSW,249,3.0,15.0,37,0.00,,FEW220,0.00,VWS V14.01,2013-04-04 16:26:00,
2013-04-04 12:32:00,49.3,24.1,30.11,West,271,16.0,16.0,37,0.00,,FEW220,0.00,VWS V14.01,2013-04-04 16:32:00,
2013-04-04 12:37:00,49.5,24.3,30.11,SSW,206,12.0,16.0,37,0.00,,FEW220,0.00,VWS V14.01,2013-04-04 16:37:00,
2013-04-04 12:42:00,49.8,23.9,30.10,WSW,245,5.0,14.0,36,0.00,,FEW220,0.00,VWS V14.01,2013-04-04 16:42:00,
2013-04-04 12:47:00,49.8,24.6,30.10,SW,220,14.0,21.0,37,0.00,,FEW220,0.00,VWS V14.01,2013-04-04 16:47:00,
2013-04-04 12:53:00,49.8,23.3,30.10,SW,215,15.0,18.0,35,0.00,,FEW220,0.00,VWS V14.01,2013-04-04 16:53:00,
2013-04-04 12:58:00,49.9,25.3,30.10,SW,222,11.0,16.0,38,0.00,,FEW220,0.00,VWS V14.01,2013-04-04 16:58:00,
2013-04-04 13:04:00,50.1,24.9,30.09,SW,235,6.0,18.0,37,0.00,,FEW220,0.00,VWS V14.01,2013-04-04 17:04:00,
2013-04-04 13:10:00,50.2,23.6,30.09,SW,221,14.0,22.0,35,0.00,,FEW220,0.00,VWS V14.01,2013-04-04 17:10:00,
2013-04-04 13:15:00,50.7,23.4,30.09,SSW,209,5.0,14.0,34,0.00,,FEW220,0.00,VWS V14.01,2013-04-04 17:15:00,
2013-04-04 13:20:00,51.1,25.8,30.09,WSW,241,4.0,19.0,37,0.00,,FEW220,0.00,VWS V14.01,2013-04-04 17:20:00,
2013-04-04 13:26:00,50.9,24.2,30.08,SW,228,20.0,20.0,35,0.00,,FEW220,0.00,VWS V14.01,2013-04-04 17:26:00,
2013-04-04 13:32:00,50.5,23.2,30.08,SW,229,9.0,17.0,34,0.00,,FEW220,0.00,VWS V14.01,2013-04-04 17:32:00,
2013-04-04 13:37:00,50.4,23.8,30.08,SW,225,7.0,13.0,35,0.00,,FEW220,0.00,VWS V14.01,2013-04-04 17:37:00,
2013-04-04 13:42:00,50.2,24.3,30.08,WSW,238,11.0,17.0,36,0.00,,FEW220,0.00,VWS V14.01,2013-04-04 17:42:00,
2013-04-04 13:47:00,50.5,24.6,30.07,SSW,206,11.0,20.0,36,0.00,,FEW220,0.00,VWS V14.01,2013-04-04 17:47:00,
2013-04-04 13:52:00,51.2,26.5,30.07,SSW,203,8.0,11.0,38,0.00,,FEW220,0.00,VWS V14.01,2013-04-04 17:52:00,
2013-04-04 13:58:00,52.0,25.9,30.06,SSW,208,11.0,14.0,36,0.00,,FEW220,0.00,VWS V14.01,2013-04-04 17:58:00,
2013-04-04 14:03:00,51.9,24.4,30.06,SSW,201,10.0,17.0,34,0.00,,FEW220,0.00,VWS V14.01,2013-04-04 18:03:00,
2013-04-04 14:08:00,51.9,24.4,30.06,SSW,199,11.0,18.0,34,0.00,,FEW220,0.00,VWS V14.01,2013-04-04 18:08:00,
2013-04-04 14:13:00,52.0,25.9,30.05,SW,214,8.0,15.0,36,0.00,,FEW220,0.00,VWS V14.01,2013-04-04 18:13:00,
2013-04-04 14:19:00,52.5,25.7,30.05,WSW,238,10.0,17.0,35,0.00,,FEW220,0.00,VWS V14.01,2013-04-04 18:19:00,
2013-04-04 14:24:00,52.2,24.7,30.04,WSW,254,8.0,15.0,34,0.00,,FEW220,0.00,VWS V14.01,2013-04-04 18:24:00,
2013-04-04 14:30:00,52.6,25.8,30.04,WNW,292,0.0,7.0,35,0.00,,FEW220,0.00,VWS V14.01,2013-04-04 18:30:00,
2013-04-04 14:35:00,52.5,24.2,30.04,WSW,242,16.0,19.0,33,0.00,,FEW220,0.00,VWS V14.01,2013-04-04 18:35:00,
2013-04-04 14:40:00,52.4,24.2,30.03,WSW,257,4.0,12.0,33,0.00,,FEW220,0.00,VWS V14.01,2013-04-04 18:40:00,
2013-04-04 14:45:00,52.2,24.0,30.03,WSW,254,12.0,18.0,33,0.00,,FEW220,0.00,VWS V14.01,2013-04-04 18:45:00,
2013-04-04 14:51:00,51.9,23.7,30.03,WSW,245,6.0,13.0,33,0.00,,FEW220,0.00,VWS V14.01,2013-04-04 18:51:00,
2013-04-04 14:57:00,51.8,23.6,30.03,SW,226,11.0,15.0,33,0.00,,FEW220,0.00,VWS V14.01,2013-04-04 18:57:00,
2013-04-04 15:02:00,52.0,23.8,30.03,SW,218,10.0,12.0,33,0.00,,FEW220,0.00,VWS V14.01,2013-04-04 19:02:00,
2013-04-04 15:07:00,52.0,23.8,30.03,SSW,211,6.0,10.0,33,0.00,,FEW220,0.00,VWS V14.01,2013-04-04 19:07:00,
2013-04-04 15:12:00,52.4,24.9,30.03,WSW,243,3.0,12.0,34,0.00,,FEW220,0.00,VWS V14.01,2013-04-04 19:12:00,
2013-04-04 15:17:00,52.8,25.9,30.03,West,281,11.0,14.0,35,0.00,,FEW220,0.00,VWS V14.01,2013-04-04 19:17:00,
2013-04-04 15:23:00,52.4,24.9,30.03,SSW,213,0.0,8.0,34,0.00,,FEW220,0.00,VWS V14.01,2013-04-04 19:23:00,
2013-04-04 15:28:00,52.7,25.8,30.02,SW,234,0.0,10.0,35,0.00,,FEW220,0.00,VWS V14.01,2013-04-04 19:28:00,
2013-04-04 15:34:00,52.7,24.4,30.02,SW,225,13.0,17.0,33,0.00,,FEW220,0.00,VWS V14.01,2013-04-04 19:34:00,
2013-04-04 15:39:00,52.1,23.9,30.02,WSW,254,11.0,16.0,33,0.00,,FEW220,0.00,VWS V14.01,2013-04-04 19:39:00,
2013-04-04 15:44:00,51.9,23.0,30.01,SSW,208,16.0,17.0,32,0.00,,FEW220,0.00,VWS V14.01,2013-04-04 19:44:00,
2013-04-04 15:50:00,52.0,23.1,30.01,WSW,239,13.0,16.0,32,0.00,,FEW220,0.00,VWS V14.01,2013-04-04 19:50:00,
2013-04-04 15:55:00,52.1,23.2,30.01,South,186,7.0,17.0,32,0.00,,FEW220,0.00,VWS V14.01,2013-04-04 19:55:00,
2013-04-04 16:00:00,52.3,23.3,30.00,SW,228,19.0,20.0,32,0.00,,FEW220,0.00,VWS V14.01,2013-04-04 20:00:00,
2013-04-04 16:05:00,52.3,24.1,30.00,SSW,209,11.0,20.0,33,0.00,,FEW220,0.00,VWS V14.01,2013-04-04 20:05:00,
2013-04-04 16:10:00,52.4,23.4,30.00,SW,220,6.0,11.0,32,0.00,,FEW220,0.00,VWS V14.01,2013-04-04 20:10:00,
2013-04-04 16:15:00,52.8,24.5,30.00,SSW,202,17.0,17.0,33,0.00,,FEW220,0.00,VWS V14.01,2013-04-04 20:15:00,
2013-04-04 16:21:00,52.6,23.6,30.00,SW,223,8.0,16.0,32,0.00,,FEW220,0.00,VWS V14.01,2013-04-04 20:21:00,
2013-04-04 16:26:00,52.4,22.7,30.00,WSW,238,7.0,19.0,31,0.00,,FEW220,0.00,VWS V14.01,2013-04-04 20:26:00,
2013-04-04 16:32:00,52.2,22.5,30.00,SW,220,6.0,13.0,31,0.00,,FEW220,0.00,VWS V14.01,2013-04-04 20:32:00,
2013-04-04 16:37:00,52.1,22.4,29.99,SW,230,14.0,16.0,31,0.00,,FEW220,0.00,VWS V14.01,2013-04-04 20:37:00,
2013-04-04 16:42:00,52.1,23.9,29.99,WSW,238,9.0,14.0,33,0.00,,FEW220,0.00,VWS V14.01,2013-04-04 20:42:00,
2013-04-04 16:47:00,52.3,23.3,29.99,SW,229,7.0,11.0,32,0.00,,FEW220,0.00,VWS V14.01,2013-04-04 20:47:00,
2013-04-04 16:53:00,52.5,22.8,29.98,SW,219,1.0,12.0,31,0.00,,FEW220,0.00,VWS V14.01,2013-04-04 20:53:00,
2013-04-04 16:58:00,52.7,22.9,29.98,SW,224,7.0,13.0,31,0.00,,FEW220,0.00,VWS V14.01,2013-04-04 20:58:00,
2013-04-04 17:03:00,52.9,22.3,29.97,WSW,238,4.0,14.0,30,0.00,,FEW220,0.00,VWS V14.01,2013-04-04 21:03:00,
2013-04-04 17:08:00,52.9,23.9,29.97,West,262,12.0,14.0,32,0.00,,FEW220,0.00,VWS V14.01,2013-04-04 21:08:00,
2013-04-04 17:14:00,52.9,23.9,29.97,SW,230,2.0,9.0,32,0.00,,FEW220,0.00,VWS V14.01,2013-04-04 21:14:00,
2013-04-04 17:19:00,53.0,24.0,29.97,SW,217,8.0,12.0,32,0.00,,FEW220,0.00,VWS V14.01,2013-04-04 21:19:00,
2013-04-04 17:25:00,53.1,23.3,29.96,SSW,195,9.0,18.0,31,0.00,,FEW220,0.00,VWS V14.01,2013-04-04 21:25:00,
2013-04-04 17:30:00,53.1,23.3,29.96,SSW,213,9.0,18.0,31,0.00,,FEW220,0.00,VWS V14.01,2013-04-04 21:30:00,
2013-04-04 17:35:00,53.0,24.0,29.96,SW,227,15.0,15.0,32,0.00,,FEW220,0.00,VWS V14.01,2013-04-04 21:35:00,
2013-04-04 17:40:00,53.0,24.0,29.95,SSW,205,5.0,17.0,32,0.00,,FEW220,0.00,VWS V14.01,2013-04-04 21:40:00,
2013-04-04 17:45:00,53.0,24.0,29.95,SSW,213,15.0,15.0,32,0.00,,FEW220,0.00,VWS V14.01,2013-04-04 21:45:00,
2013-04-04 17:50:00,53.0,23.2,29.95,SSW,202,16.0,20.0,31,0.00,,FEW220,0.00,VWS V14.01,2013-04-04 21:50:00,
2013-04-04 17:55:00,53.0,24.0,29.95,SSW,208,7.0,14.0,32,0.00,,FEW220,0.00,VWS V14.01,2013-04-04 21:55:00,
2013-04-04 18:01:00,52.9,23.9,29.94,SSE,161,6.0,11.0,32,0.00,,FEW220,0.00,VWS V14.01,2013-04-04 22:01:00,
2013-04-04 18:07:00,52.8,24.5,29.94,South,187,6.0,17.0,33,0.00,,FEW220,0.00,VWS V14.01,2013-04-04 22:07:00,
2013-04-04 18:12:00,52.8,23.8,29.94,SSW,203,9.0,10.0,32,0.00,,FEW220,0.00,VWS V14.01,2013-04-04 22:12:00,
2013-04-04 18:17:00,52.8,23.8,29.94,South,184,0.0,7.0,32,0.00,,FEW220,0.00,VWS V14.01,2013-04-04 22:17:00,
2013-04-04 18:23:00,52.9,23.9,29.95,SW,215,1.0,9.0,32,0.00,,FEW220,0.00,VWS V14.01,2013-04-04 22:23:00,
2013-04-04 18:28:00,53.0,24.0,29.95,SW,230,4.0,11.0,32,0.00,,FEW220,0.00,VWS V14.01,2013-04-04 22:28:00,
2013-04-04 18:33:00,52.8,23.0,29.95,WSW,243,11.0,16.0,31,0.00,,FEW220,0.00,VWS V14.01,2013-04-04 22:33:00,
2013-04-04 18:38:00,52.4,23.4,29.96,WSW,241,14.0,15.0,32,0.00,,FEW220,0.00,VWS V14.01,2013-04-04 22:38:00,
2013-04-04 18:43:00,52.2,23.2,29.96,SW,231,8.0,8.0,32,0.00,,FEW220,0.00,VWS V14.01,2013-04-04 22:43:00,
2013-04-04 18:49:00,52.2,23.2,29.96,SW,218,3.0,9.0,32,0.00,,FEW220,0.00,VWS V14.01,2013-04-04 22:49:00,
2013-04-04 18:54:00,52.1,22.4,29.96,SW,230,6.0,13.0,31,0.00,,FEW220,0.00,VWS V14.01,2013-04-04 22:54:00,
2013-04-04 19:00:00,51.8,23.6,29.96,SW,227,4.0,8.0,33,0.00,,FEW220,0.00,VWS V14.01,2013-04-04 23:00:00,
2013-04-04 19:05:00,51.5,24.1,29.96,SW,230,3.0,9.0,34,0.00,,FEW220,0.00,VWS V14.01,2013-04-04 23:05:00,
2013-04-04 19:10:00,51.2,23.8,29.96,SW,226,0.0,4.0,34,0.00,,FEW220,0.00,VWS V14.01,2013-04-04 23:10:00,
2013-04-04 19:15:00,50.9,24.2,29.96,WSW,256,0.0,6.0,35,0.00,,FEW220,0.00,VWS V14.01,2013-04-04 23:15:00,
2013-04-04 19:20:00,50.6,24.0,29.96,SW,226,0.0,5.0,35,0.00,,FEW220,0.00,VWS V14.01,2013-04-04 23:20:00,
2013-04-04 19:25:00,50.5,24.6,29.96,SW,220,0.0,0.0,36,0.00,,FEW220,0.00,VWS V14.01,2013-04-04 23:25:00,
2013-04-04 19:31:00,50.3,24.4,29.96,SW,221,5.0,5.0,36,0.00,,FEW220,0.00,VWS V14.01,2013-04-04 23:31:00,
2013-04-04 19:36:00,50.1,24.2,29.96,WSW,238,0.0,6.0,36,0.00,,FEW220,0.00,VWS V14.01,2013-04-04 23:36:00,
2013-04-04 19:41:00,50.1,24.2,29.96,SW,222,0.0,4.0,36,0.00,,FEW220,0.00,VWS V14.01,2013-04-04 23:41:00,
2013-04-04 19:47:00,50.0,24.8,29.96,SW,217,0.0,0.0,37,0.00,,FEW220,0.00,VWS V14.01,2013-04-04 23:47:00,
2013-04-04 19:52:00,49.9,24.7,29.96,SW,232,0.0,0.0,37,0.00,,FEW220,0.00,VWS V14.01,2013-04-04 23:52:00,
2013-04-04 19:58:00,49.7,24.5,29.96,SW,236,0.0,4.0,37,0.00,,FEW220,0.00,VWS V14.01,2013-04-04 23:58:00,
2013-04-04 20:03:00,49.6,24.4,29.96,SW,236,0.0,0.0,37,0.00,,FEW220,0.00,VWS V14.01,2013-04-05 00:03:00,
2013-04-04 20:09:00,49.6,24.4,29.96,SW,236,0.0,0.0,37,0.00,,FEW220,0.00,VWS V14.01,2013-04-05 00:09:00,
2013-04-04 20:14:00,49.5,25.0,29.95,SW,236,0.0,3.0,38,0.00,,BKN200,0.00,VWS V14.01,2013-04-05 00:14:00,
2013-04-04 20:20:00,49.3,25.4,29.96,SW,236,2.0,5.0,39,0.00,,BKN200,0.00,VWS V14.01,2013-04-05 00:20:00,
2013-04-04 20:25:00,49.2,24.7,29.96,SW,229,0.0,1.0,38,0.00,,BKN200,0.00,VWS V14.01,2013-04-05 00:25:00,
2013-04-04 20:30:00,49.1,24.6,29.95,SW,223,0.0,4.0,38,0.00,,BKN200,0.00,VWS V14.01,2013-04-05 00:30:00,
2013-04-04 20:36:00,49.1,24.6,29.95,SSW,209,0.0,0.0,38,0.00,,BKN200,0.00,VWS V14.01,2013-04-05 00:36:00,
2013-04-04 20:41:00,49.0,25.1,29.94,South,191,0.0,0.0,39,0.00,,BKN200,0.00,VWS V14.01,2013-04-05 00:41:00,
2013-04-04 20:46:00,48.8,25.6,29.94,South,191,0.0,5.0,40,0.00,,BKN200,0.00,VWS V14.01,2013-04-05 00:46:00,
2013-04-04 20:51:00,48.8,26.2,29.94,South,191,4.0,6.0,41,0.00,,BKN200,0.00,VWS V14.01,2013-04-05 00:51:00,
2013-04-04 20:56:00,48.7,26.1,29.94,SSW,194,0.0,0.0,41,0.00,,BKN200,0.00,VWS V14.01,2013-04-05 00:56:00,
2013-04-04 21:02:00,48.6,26.6,29.94,SSW,194,0.0,2.0,42,0.00,,BKN200,0.00,VWS V14.01,2013-04-05 01:02:00,
2013-04-04 21:07:00,48.5,26.5,29.94,South,191,0.0,4.0,42,0.00,,BKN200,0.00,VWS V14.01,2013-04-05 01:07:00,
2013-04-04 21:12:00,48.4,25.8,29.94,South,191,5.0,8.0,41,0.00,,OVC120,0.00,VWS V14.01,2013-04-05 01:12:00,
2013-04-04 21:17:00,48.3,25.7,29.94,SSW,194,0.0,0.0,41,0.00,,OVC120,0.00,VWS V14.01,2013-04-05 01:17:00,
2013-04-04 21:23:00,48.2,25.6,29.94,SSW,195,6.0,7.0,41,0.00,,OVC120,0.00,VWS V14.01,2013-04-05 01:23:00,
2013-04-04 21:28:00,48.1,26.1,29.94,SSW,195,0.0,5.0,42,0.00,,OVC120,0.00,VWS V14.01,2013-04-05 01:28:00,
2013-04-04 21:35:00,48.0,26.0,29.94,SSW,195,0.0,0.0,42,0.00,,OVC120,0.00,VWS V14.01,2013-04-05 01:35:00,
2013-04-04 21:40:00,47.8,26.4,29.94,SSW,195,0.0,0.0,43,0.00,,OVC120,0.00,VWS V14.01,2013-04-05 01:40:00,
2013-04-04 21:45:00,47.7,26.9,29.94,SSW,195,0.0,0.0,44,0.00,,OVC120,0.00,VWS V14.01,2013-04-05 01:45:00,
2013-04-04 21:50:00,47.5,26.7,29.94,SSW,195,0.0,1.0,44,0.00,,OVC120,0.00,VWS V14.01,2013-04-05 01:50:00,
2013-04-04 21:56:00,47.4,27.1,29.94,SSW,195,0.0,0.0,45,0.00,,OVC120,0.00,VWS V14.01,2013-04-05 01:56:00,
2013-04-04 22:01:00,47.3,27.0,29.94,SSW,195,0.0,0.0,45,0.00,,OVC120,0.00,VWS V14.01,2013-04-05 02:01:00,
2013-04-04 22:07:00,47.1,26.9,29.94,SSW,195,0.0,0.0,45,0.00,,OVC120,0.00,VWS V14.01,2013-04-05 02:07:00,
2013-04-04 22:12:00,46.8,26.6,29.94,SSW,195,0.0,0.0,45,0.00,,BKN075,0.00,VWS V14.01,2013-04-05 02:12:00,
2013-04-04 22:17:00,46.5,26.9,29.94,SSW,195,0.0,0.0,46,0.00,,BKN075,0.00,VWS V14.01,2013-04-05 02:17:00,
2013-04-04 22:22:00,46.4,27.3,29.94,SSW,195,0.0,0.0,47,0.00,,BKN075,0.00,VWS V14.01,2013-04-05 02:22:00,
2013-04-04 22:28:00,46.1,27.5,29.94,SSW,195,0.0,0.0,48,0.00,,BKN075,0.00,VWS V14.01,2013-04-05 02:28:00,
2013-04-04 22:33:00,45.9,26.8,29.94,SSW,195,0.0,0.0,47,0.00,,BKN075,0.00,VWS V14.01,2013-04-05 02:33:00,
2013-04-04 22:39:00,45.7,27.1,29.94,SSW,195,0.0,0.0,48,0.00,,BKN075,0.00,VWS V14.01,2013-04-05 02:39:00,
2013-04-04 22:44:00,45.6,27.1,29.94,SSW,195,0.0,0.0,48,0.00,,BKN075,0.00,VWS V14.01,2013-04-05 02:44:00,
2013-04-04 22:50:00,45.4,27.4,29.94,SSW,195,0.0,0.0,49,0.00,,BKN075,0.00,VWS V14.01,2013-04-05 02:50:00,
2013-04-04 22:55:00,45.1,27.1,29.94,SSW,195,0.0,0.0,49,0.00,,BKN075,0.00,VWS V14.01,2013-04-05 02:55:00,
2013-04-04 23:00:00,44.8,27.8,29.94,WSW,254,0.0,0.0,51,0.00,,BKN075,0.00,VWS V14.01,2013-04-05 03:00:00,
2013-04-04 23:05:00,44.6,27.6,29.94,WSW,257,3.0,3.0,51,0.00,,BKN065,0.00,VWS V14.01,2013-04-05 03:05:00,
2013-04-04 23:11:00,44.4,27.4,29.94,WSW,258,0.0,0.0,51,0.00,,BKN065,0.00,VWS V14.01,2013-04-05 03:11:00,
2013-04-04 23:16:00,44.3,26.9,29.94,WSW,258,0.0,3.0,50,0.00,,BKN065,0.00,VWS V14.01,2013-04-05 03:16:00,
2013-04-04 23:22:00,44.2,26.8,29.94,WSW,258,3.0,3.0,50,0.00,,BKN065,0.00,VWS V14.01,2013-04-05 03:22:00,
2013-04-04 23:27:00,44.2,26.3,29.94,West,265,0.0,0.0,49,0.00,,BKN065,0.00,VWS V14.01,2013-04-05 03:27:00,
2013-04-04 23:32:00,44.1,26.2,29.94,West,265,0.0,0.0,49,0.00,,BKN065,0.00,VWS V14.01,2013-04-05 03:32:00,
2013-04-04 23:38:00,44.0,25.6,29.94,West,265,1.0,1.0,48,0.00,,BKN065,0.00,VWS V14.01,2013-04-05 03:38:00,
2013-04-04 23:43:00,43.9,25.5,29.94,West,265,0.0,0.0,48,0.00,,BKN065,0.00,VWS V14.01,2013-04-05 03:43:00,
2013-04-04 23:48:00,43.8,25.4,29.94,West,265,0.0,0.0,48,0.00,,BKN065,0.00,VWS V14.01,2013-04-05 03:48:00,
2013-04-04 23:53:00,43.6,25.2,29.94,West,265,0.0,0.0,48,0.00,,BKN065,0.00,VWS V14.01,2013-04-05 03:53:00,
2013-04-04 23:59:00,43.4,25.0,29.94,West,265,0.0,0.0,48,0.00,,BKN065,0.00,VWS V14.01,2013-04-05 03:59:00,